Regional Weather Roundup
Issued by NWS Grand Forks, ND

Home | Current Version | Previous Version | Graphics & Text | Print | Product List | Glossary On
Versions: 1 2 3 4 5 6 7 8 9 10 11 12 13 14 15 16 17 18 19 20 21 22 23 24 25 26 27 28 29 30 31 32 33 34 35 36 37 38 39 40 41 42 43 44 45 46 47 48 49 50
000
ASUS43 KFGF 051010
RWRFGF
PRAIRIE TO PINES  WEATHER ROUNDUP
NATIONAL WEATHER SERVICE EASTERN NORTH DAKOTA/GRAND FORKS ND
400 AM CST MON DEC 05 2016

 **SATELLITE DATA USED TO AUGMENT SKY COVER AT AUTOMATED STATIONS**
 *****  WEATHER ACROSS EASTERN NORTH DAKOTA  *****

CITY           SKY/WX    TMP DP  RH WIND       PRES   REMARKS
GRAND FORKS    CLOUDY    26  23  88 CALM      29.70F
GRAND FRKS AFB CLOUDY    26  24  93 SE5       29.69F WCI  20
GRAND FRKS NWS   N/A     27 N/A N/A MISG        N/A
DEVILS LAKE    FOG       23  22  96 E10       29.64F VSB 1/2 WCI  12
FARGO          PTCLDY    21  18  88 CALM      29.70F
WAHPETON ARPT  SUNNY     28  27  93 SE5       29.71F WCI  23
$$

 ***** WEATHER ACROSS CENTRAL AND WESTERN NORTH DAKOTA  *****

CITY           SKY/WX    TMP DP  RH WIND       PRES   REMARKS
BISMARCK       CLOUDY    19  16  88 N6        29.58S WCI  11
MINOT          CLOUDY    19  16  88 E7        29.53F WCI  10
JAMESTOWN      CLOUDY    24  22  91 E5        29.62F WCI  18
MINOT AFB      CLOUDY    18  15  91 E9        29.52F WCI   6
GARRISON         N/A     23  20  88 E8        29.50F WCI  14
WILLISTON      MOCLDY    25  23  92 SW5       29.48S WCI  19
DICKINSON      CLOUDY    29  24  82 SW7       29.49R WCI  22
HETTINGER      CLOUDY    19  15  84 NW3       29.52S
$$

 *****  OTHER AIRPORT OBSERVATIONS IN OUR AREA  *****

CITY           SKY/WX    TMP DP  RH WIND       PRES   REMARKS
WALHALLA         N/A     27  27 100 SW5       29.69S WCI  21
GRAFTON AIRPOR CLOUDY    27  27 100 SW6       29.73R WCI  20
VALLEY CITY AR CLOUDY    21  21 100 SE5       29.67F WCI  15
CANDO          FOG       23  23 100 SE9       29.66S VSB 1/2 WCI  13
CAVALIER APRT    N/A     28  27  93 S8        29.70R WCI  20
GWINNER        CLOUDY    28  28 100 E6        29.66F WCI  22
ROLLA          FOG       16  16 100 SE7       29.62R VSB 1/4 WCI   6
 ***** THE ABOVE OBSERVATIONS ARE NON NWS ARE NOT QUALITY
       CONTROLLED AND MAY MIS-REPORT RAIN FOR SNOW...
$$

  *****  WEATHER ACROSS NORTHERN MINNESOTA  *****

CITY           SKY/WX    TMP DP  RH WIND       PRES   REMARKS
FLAG ISLAND    CLOUDY    30  28  93 W7        29.63S WCI  23
WARROAD        CLOUDY    30  27  86 SW7       29.67R WCI  23
ROSEAU         CLOUDY    30  27  86 W7        29.68R WCI  23
HALLOCK        CLOUDY    30  27  86 SW6       29.70R WCI  24
THF RVR FALLS  CLOUDY    27  25  92 SW7       29.72R WCI  19
BAUDETTE       CLOUDY    30  26  85 W8        29.66R WCI  22
WASKISH        CLOUDY    28  27  93 W9        29.69S WCI  20
CROOKSTON      CLOUDY    27  27 100 W5        29.73S WCI  21
GREENBUSH NDAW   N/A     28  28 100 SW3         N/A
$$
  *****  WEATHER ACROSS CENTRAL AND WEST MINNESOTA  *****

CITY           SKY/WX    TMP DP  RH WIND       PRES   REMARKS
FOSSTON        CLOUDY    27  25  93 W3        29.71S
BEMIDJI        CLOUDY    28  26  93 W5        29.69F WCI  22
PARK RAPIDS    CLOUDY    28  23  81 CALM      29.70S
ELBOW LAKE     FAIR      27  26  98 CALM      29.72F
WADENA         FOG       19  19 100 CALM      29.71F VSB 1/2
DETROIT LAKES  CLEAR     25  25 100 CALM      29.71S FOG
MOORHEAD       CLEAR     25  21  86 SE3       29.71F
FERGUS FALLS   CLEAR     25  25 100 S7        29.75S WCI  17
MORRIS MN      CLEAR     27  27 100 SE7       29.71S WCI  19
STAPLES        CLEAR     21  21 100 CALM      29.72F FOG
$$
  *****  WEATHER ELSEWHERE ACROSS MINNESOTA  *****

CITY           SKY/WX    TMP DP  RH WIND       PRES   REMARKS
DULUTH         CLOUDY    31  28  89 W10       29.71S WCI  22
INTRNTL FALLS  CLOUDY    30  27  88 W8        29.66S WCI  22
ELY            CLOUDY    28  27  93 W7        29.67S WCI  21
CLOQUET        CLOUDY    32  27  80 W7        29.73R
WHEATON        NOT AVBL
BRAINERD       CLEAR     24  23  96 CALM      29.73F FOG
HIBBING        CLOUDY    29  26  89 VRB5      29.70S WCI  24
ALEXANDRIA     CLEAR     27  26  96 CALM      29.72F
SAINT CLOUD    CLEAR     26  26 100 SE3       29.76F
MINNEAPOLIS    PTCLDY    30  27  88 S3        29.80F FOG
$$

  *****  WEATHER ACROSS SOUTH DAKOTA  *****

CITY           SKY/WX    TMP DP  RH WIND       PRES   REMARKS
SIOUX FALLS    CLOUDY    35  30  82 SE9       29.66F
BROOKINGS      PTCLDY    32  29  88 SE13      29.65F WCI  22
WATERTOWN      PTCLDY    31  27  85 SE6       29.64F
HURON          CLOUDY    32  28  85 SE7       29.60F
SISSETON         N/A     27  24  89 SE8       29.66F WCI  19
ABERDEEN       CLOUDY    30  25  81 E7        29.61F WCI  23
MITCHELL       CLOUDY    32  27  81 SE9       29.62F WCI  24
PIERRE         CLEAR     29  23  78 SE5       29.52F WCI  24
MOBRIDGE       CLEAR     32  20  61 E12       29.51F WCI  23
RAPID CITY     CLOUDY    33  21  61 NE3       29.48F
$$

  *****  SOME WEATHER IN NEARBY STATES *****

CITY           SKY/WX    TMP DP  RH WIND       PRES   REMARKS
GLASGOW MT     CLOUDY    24  19  81 NW29G38   29.60R WCI   7
GREAT FALLS MT CLOUDY    19  16  88 NW10      29.81R WCI   7
CHEYENNE WY    CLOUDY    36  18  48 W13       29.61S
SCOTTSBLUFF NE CLOUDY    40  20  44 NW3       29.57F
OMAHA NE       CLOUDY    32  28  85 SE8       29.83F WCI  25
DES MOINES IA  CLOUDY    32  30  92 S8        29.89F FOG     WCI  25
DAVENPORT IA   CLOUDY    33  32  96 S6        29.98S FOG
CHICAGO IL     CLOUDY    33  30  88 W9        29.98S
EAU CLAIRE WI  CLEAR     29  29 100 SW3       29.82S
LA CROSSE WI   PTCLDY    35  32  88 S6        29.88S
$$

  *****  SOME NATIONAL WEATHER *****

CITY           SKY/WX    TMP DP  RH WIND       PRES   REMARKS
LA GUARDIA NY  LGT RAIN  41  36  82 SW8       30.02F
RALEIGH NC     CLOUDY    42  41  96 VRB3      30.01S
ATLANTA GA     DRZL/FOG  44  44 100 NE3       30.00S VSB 1
NEW ORLEANS LA FOG       58  58 100 N7        29.89F VSB 1
OKLAHOMA CITY  MOCLDY    33  32  96 S6        29.97F FOG
ALBUQUERQUE NM CLOUDY    29  13  51 S5        29.98F WCI  24
SALT LAKE CITY CLOUDY    40  27  59 N15       29.80R
LOS ANGELES CA PTCLDY    51  49  92 E5        29.96F
BOISE ID       CLEAR     26  17  68 NW8       30.07R WCI  18
SEATTLE WA     MOCLDY    36  33  89 S12       30.14S
$$

*** WEATHER ACROSS MANITOBA...SASKATCHEWAN AND ONTARIO ***
                ***ONTARIO***

CITY           SKY/WX    TMP DP  RH WIND       PRES   REMARKS
GERALDTON      LGT SNOW  27  27 100 E5        29.63F WCI  21
THUNDER BAY    LGT SNOW  28  28 100 SW5       29.66R VSB 3/4 WCI  23
SIOUX LOOKOUT  SNOWSHWR  27  25  93 SE3       29.61S
TORONTO        LGT SNOW  34  32  93 S3        29.77F FOG
BIG TROUT LK   CLOUDY    25  23  93 SE5       29.70R WCI  19
PICKLE LAKE    NOT AVBL
DRYDEN         FLURRIES  30  30 100 SW6       29.60R WCI  24
KENORA         LGT SNOW  28  28 100 W6        29.61R WCI  22
$$
                *** MANITOBA***

CITY           SKY/WX    TMP DP  RH WIND       PRES   REMARKS
BRANDON        FOG       23  21  93 SE3       29.63F VSB 1/8
DAUPHIN        CLOUDY    19  18  93 NW3       29.66S
ISLAND LAKE    NOT AVBL
PILOT MOUND      N/A     21  19  93 S7          N/A  WCI  13
THE PAS        CLOUDY    23  19  86 W7        29.64R WCI  15
THOMPSON       FLURRIES  25  23  93 E3        29.65R
WINNIPEG       CLOUDY    30  27  86 NW6       29.68R WCI  24
LYNN LAKE      CLOUDY    25  25 100 CALM      29.62R
CHURCHILL      FLURRIES  21  19  93 CALM      29.79S
GILLAM         FLURRIES  16  14  93 E2        29.72S
$$
                ***SASKATCHEWAN***

CITY           SKY/WX    TMP DP  RH WIND       PRES   REMARKS
ESTEVAN        NOT AVBL
KINDERSLEY     CLOUDY     7   1  78 NW21G32   29.78R WCI -13
LLOYDMINSTER   LGT SNOW   7   1  78 NW23G30   29.81R WCI -14
PRINCE ALBERT  FLURRIES  19  14  79 NW13      29.67R WCI   7
REGINA         FLURRIES  16  14  93 N8        29.60R WCI   5
YORKTON        FOG       14  14 100 CALM      29.61S VSB 3/8
N. BATTLEFORD  LGT SNOW  12   9  85 NW17G24   29.79R WCI  -5
LA RONGE       FLURRIES  21  16  79 W12G18    29.65R WCI   9
SASKATOON      CLOUDY    16  10  79 NW17G24   29.72R WCI   0
SWIFT CURRENT  FLURRIES  16  16 100 NW25      29.65R WCI  -3
$$
NOTE: THESE ARE AUTOMATED STATIONS WITH LIMITED QUALITY CONTROL
      "FAIR" INDICATES FEW OR NO CLOUDS BELOW 12,000 FEET WITH NO
      SIGNIFICANT WEATHER AND/OR OBSTRUCTIONS TO VISIBILITY.
      SKY/WX - SKY CONDITION AND SIGNIFICANT WEATHER.
      TMP - AIR TEMPERATURE.    DP   - DEWPOINT TEMPERATURE.
      RH  - RELATIVE HUMIDITY.  PRES - PRESSURE.
      HX  - HEAT INDEX.         WCI  - WIND CHILL INDEX.
$




USA.gov is the U.S. government's official web portal to all federal, state and local government web resources and services.